JA3YAI-13 Weather Reports


time (UTC)temp
C
wind
direction
speed
KPH
gust
KPH
rain 1hr
cm
rain 24hr
cm
rain mn
cm
humidity
%
barometer
mb
20260504130624 13 47 1.6 38.6 0.00 1.32 0.15 77 1008.6
20260504110623 14 148 1.6 38.6 0.00 1.88 0.15 78 1006.8
20260504081624 16 309 3.2 38.6 0.00 2.44 0.15 67 1002.9
20260504080624 17 127 0.0 38.6 0.00 2.46 0.15 68 1002.6
20260504050624 19 190 11.3 38.6 0.00 2.64 0.15 60 1000.3
20260504045624 18 338 11.3 38.6 0.00 2.64 0.15 60 1000.2
20260504044623 19 242 9.7 38.6 0.00 2.64 0.15 61 1000.1
20260504043625 20 166 4.8 33.8 0.00 2.64 0.15 60 999.7
20260504042624 19 52 9.7 33.8 0.00 2.64 0.15 60 999.7
20260504041624 19 21 9.7 29.0 0.00 2.64 0.15 64 999.6
20260504040623 18 315 9.7 29.0 0.00 2.64 0.15 62 999.6
20260504035625 18 158 4.8 29.0 0.00 2.64 0.15 63 999.6
20260504034624 18 179 8.0 29.0 0.00 2.64 0.15 61 999.6
20260504033624 18 194 3.2 29.0 0.00 2.64 0.15 63 999.6
20260504032624 18 119 4.8 29.0 0.00 2.67 0.15 63 999.4
20260504031625 18 199 9.7 29.0 0.00 2.67 0.15 66 999.3
20260504030625 18 260 11.3 29.0 0.00 2.67 0.15 67 999.4
20260504025625 17 197 9.7 29.0 0.00 2.67 0.15 67 999.4
20260504024624 17 195 9.7 29.0 0.00 2.77 0.15 67 999.3
20260504023624 18 225 8.0 29.0 0.00 2.79 0.15 67 999.2
20260504022623 18 221 9.7 29.0 0.00 2.82 0.15 69 999.2
20260504021625 18 298 4.8 29.0 0.00 2.82 0.15 67 999.2
20260504020625 18 280 9.7 29.0 0.00 2.82 0.15 66 999.4
20260504015624 18 113 11.3 29.0 0.00 2.82 0.15 66 999.3
20260504014624 19 149 9.7 29.0 0.00 2.82 0.15 64 999.2
20260504013623 19 122 8.0 29.0 0.00 2.82 0.15 64 999.2
20260504012625 18 225 9.7 29.0 0.00 2.82 0.15 67 998.9
20260504011625 18 190 9.7 29.0 0.00 2.82 0.15 67 999.1
20260504010624 19 106 9.7 29.0 0.00 2.82 0.15 64 999.0
20260504005624 19 287 4.8 29.0 0.00 2.82 0.15 66 998.9
20260504004625 19 222 9.7 29.0 0.00 2.82 0.15 65 998.5
20260504003625 18 266 11.3 29.0 0.00 2.82 0.15 65 998.8
20260504002624 18 279 9.7 29.0 0.00 2.82 0.15 66 998.4
20260504001624 18 158 8.0 29.0 0.00 2.82 0.15 69 998.7
20260504000624 18 309 9.7 29.0 0.00 2.82 0.15 69 998.6
20260503235625 18 158 12.9 29.0 0.00 2.82 0.15 71 998.3
20260503234624 17 107 12.9 27.4 0.00 2.82 0.15 72 998.1
20260503233624 17 227 11.3 27.4 0.00 2.82 0.15 73 998.5
20260503232624 17 313 12.9 27.4 0.00 2.82 0.15 74 998.0
20260503231623 17 159 9.7 27.4 0.00 2.82 0.15 76 998.0
20260503230625 17 180 9.7 27.4 0.00 2.82 0.15 77 997.4
20260503225624 17 249 9.7 27.4 0.00 2.82 0.15 78 997.9
20260503224624 16 221 8.0 27.4 0.00 2.82 0.15 78 997.9
20260503223624 16 228 11.3 27.4 0.00 2.82 0.15 77 997.5
20260503222623 16 281 4.8 27.4 0.00 2.82 0.15 78 997.6
20260503221625 17 224 4.8 27.4 0.00 2.82 0.15 79 997.2
20260503220624 16 171 3.2 27.4 0.00 2.82 0.15 81 997.3
20260503215624 16 200 8.0 27.4 0.00 2.82 0.15 80 997.3
20260503214624 16 56 3.2 27.4 0.00 2.82 0.15 80 997.1
20260503213624 16 349 4.8 27.4 0.00 2.82 0.15 80 996.8
20260503212625 16 192 3.2 27.4 0.00 2.82 0.15 79 996.4
20260503211624 16 153 11.3 27.4 0.00 2.82 0.15 80 996.4
20260503210624 16 170 1.6 25.7 0.00 2.82 0.15 84 995.9
20260503205623 16 237 4.8 25.7 0.00 2.82 0.15 84 995.9
20260503204625 16 268 4.8 25.7 0.00 2.82 0.15 85 995.6
20260503203625 16 159 4.8 25.7 0.00 2.82 0.15 85 996.1
20260503202624 16 158 9.7 25.7 0.00 2.82 0.15 86 996.6
20260503201624 16 338 4.8 25.7 0.00 2.82 0.15 86 996.5
20260503200623 16 115 4.8 25.7 0.00 2.82 0.15 86 995.8
20260503195625 16 275 4.8 24.1 0.00 2.82 0.15 87 995.8
20260503194624 15 158 9.7 24.1 0.00 2.82 0.15 88 995.8
20260503193624 15 305 3.2 24.1 0.00 2.82 0.15 89 995.6
20260503192623 15 259 3.2 24.1 0.00 2.82 0.15 90 995.2
20260503191625 16 255 4.8 24.1 0.00 2.82 0.15 89 995.4
20260503190624 16 135 9.7 24.1 0.00 2.82 0.15 89 995.0
20260503185624 16 270 8.0 24.1 0.00 2.82 0.15 88 995.4
20260503184623 16 180 4.8 22.5 0.00 2.82 0.15 89 995.1
20260503183625 16 158 8.0 22.5 0.00 2.82 0.15 89 994.9
20260503182624 16 227 9.7 22.5 0.00 2.82 0.15 90 994.6
20260503181624 16 21 4.8 22.5 0.00 2.82 0.15 93 994.4
20260503180624 16 337 4.8 22.5 0.00 2.82 0.15 95 994.2
20260503175623 15 293 4.8 22.5 0.00 2.82 0.15 97 994.4
20260503174625 16 45 4.8 22.5 0.15 2.82 0.15 98 994.2
20260503173625 16 315 3.2 22.5 0.15 2.82 0.15 98 993.9
20260503172624 16 333 3.2 22.5 0.15 2.82 0.15 99 993.9
20260503171624 16 135 8.0 22.5 0.15 2.82 0.15 99 993.8
20260503170623 17 208 4.8 14.5 0.15 2.82 0.15 99 993.6
20260503150624 17 135 8.0 14.5 0.00 2.67 0.00 99 993.2